FW8288 Weather Reports


Display with metric or nautical units.
time (UTC)temp
F
wind
direction
speed
MPH
gust
MPH
rain 1hr
in
rain 24hr
in
rain mn
in
humidity
%
barometer
mb
20260901071607 81 0 0.0 0.0 0.00 0.00 0.00 86 1016.2
20260901070105 81 0 0.0 0.0 0.00 0.00 0.00 86 1016.3
20260901064605 81 0 0.0 0.0 0.00 0.00 0.00 85 1016.2
20260901063102 81 0 0.0 0.0 0.00 0.00 0.00 84 1016.3
20260901061604 81 0 0.0 0.0 0.00 0.00 0.00 84 1016.4
20260901060108 81 0 0.0 0.0 0.00 0.00 0.00 83 1016.4
20260901054604 82 0 0.0 0.0 0.00 0.00 0.00 83 1016.3
20260901053122 82 0 0.0 0.0 0.00 0.00 0.00 81 1016.2
20260901051604 83 0 0.0 0.0 0.00 0.00 0.00 81 1016.2
20260901044602 83 0 0.0 1.0 0.00 0.00 0.00 79 1016.0
20260901043135 83 0 0.0 1.0 0.00 0.00 0.00 79 1015.7
20260901041611 84 0 0.0 1.0 0.00 0.00 0.00 79 1015.9
20260901040106 84 0 0.0 0.0 0.00 0.00 0.00 79 1015.9
20260901034614 84 0 0.0 2.0 0.00 0.00 0.00 78 1015.7
20260901033109 84 0 0.0 0.0 0.00 0.00 0.00 78 1015.7
20260901031603 85 0 0.0 0.0 0.00 0.00 0.00 77 1015.5
20260901030103 85 0 0.0 1.0 0.00 0.00 0.00 76 1015.4
20260901024608 85 0 0.0 1.0 0.00 0.00 0.00 75 1015.2
20260901023103 85 0 0.0 2.0 0.00 0.00 0.00 73 1015.0
20260901021606 86 0 0.0 1.0 0.00 0.00 0.00 72 1014.8
20260901020109 86 166 0.0 2.0 0.00 0.00 0.00 71 1014.6
20260901014606 87 0 0.0 2.0 0.00 0.00 0.00 69 1014.5
20260901013100 87 0 0.0 5.0 0.00 0.00 0.00 66 1014.6
20260901011603 88 166 1.0 4.0 0.00 0.00 0.00 66 1014.8
20260901010104 88 166 0.0 3.0 0.00 0.00 0.00 65 1014.6
20260901004605 90 166 0.0 3.0 0.00 0.00 0.00 64 1014.4
20260901003103 90 166 1.0 4.0 0.00 0.00 0.00 59 1014.6
20260901001602 90 166 1.0 6.0 0.00 0.00 0.00 59 1014.6
20260901000108 91 166 0.0 4.0 0.00 0.00 0.00 59 1014.7
20260831234606 91 166 3.0 6.0 0.00 0.00 0.00 58 1014.7
20260831233106 91 166 2.0 4.0 0.00 0.00 0.00 56 1014.7
20260831231605 91 166 2.0 8.0 0.00 0.00 0.00 54 1014.5
20260831230106 92 166 2.0 5.0 0.00 0.00 0.00 51 1014.5
20260831224603 92 166 2.0 9.0 0.00 0.00 0.00 49 1014.5
20260831223105 93 166 1.0 7.0 0.00 0.00 0.00 48 1014.6
20260831221608 93 165 4.0 8.0 0.00 0.00 0.00 49 1014.7
20260831220129 92 167 4.0 11.0 0.00 0.00 0.00 49 1014.8
20260831214602 92 166 3.0 9.0 0.00 0.00 0.00 54 1014.9
20260831213106 92 167 4.0 8.0 0.00 0.00 0.00 55 1015.0
20260831211559 94 166 2.0 5.0 0.00 0.00 0.00 55 1015.0
20260831204604 94 167 2.0 6.0 0.00 0.00 0.00 53 1015.2
20260831203133 94 167 2.0 6.0 0.00 0.00 0.00 55 1015.4
20260831201606 93 167 4.0 8.0 0.00 0.00 0.00 56 1015.6
20260831200104 94 167 2.0 5.0 0.00 0.00 0.00 52 1015.7
20260831194610 95 167 2.0 3.0 0.00 0.00 0.00 50 1015.9
20260831193102 95 167 0.0 3.0 0.00 0.00 0.00 52 1015.9
20260831191601 93 167 1.0 4.0 0.00 0.00 0.00 55 1016.2
20260831190139 93 167 2.0 5.0 0.00 0.00 0.00 53 1016.5
20260831184609 96 167 1.0 3.0 0.00 0.00 0.00 49 1016.7
20260831183107 95 167 0.0 6.0 0.00 0.00 0.00 50 1016.8
20260831181609 94 0 2.0 5.0 0.00 0.00 0.00 51 1017.0
20260831180106 93 0 0.0 4.0 0.00 0.00 0.00 54 1017.4
20260831174607 94 0 1.0 3.0 0.00 0.00 0.00 53 1017.3
20260831173115 94 167 2.0 4.0 0.00 0.00 0.00 53 1017.6
20260831171608 94 167 1.0 4.0 0.00 0.00 0.00 51 1017.7
20260831170123 93 167 2.0 6.0 0.00 0.00 0.00 52 1017.8
20260831164605 91 167 0.0 3.0 0.00 0.00 0.00 58 1017.8
20260831163105 89 167 0.0 3.0 0.00 0.00 0.00 64 1017.9
20260831161608 90 167 0.0 1.0 0.00 0.00 0.00 60 1017.8
20260831160131 89 167 0.0 4.0 0.00 0.00 0.00 63 1018.1
20260831154627 89 0 0.0 2.0 0.00 0.00 0.00 63 1017.9
20260831153131 87 167 1.0 4.0 0.00 0.00 0.00 69 1017.8
20260831151602 87 167 0.0 4.0 0.00 0.00 0.00 73 1018.0
20260831144608 85 0 0.0 0.0 0.00 0.00 0.00 78 1017.8
20260831143104 84 0 0.0 2.0 0.00 0.00 0.00 81 1017.6
20260831141605 83 0 0.0 0.0 0.00 0.00 0.00 82 1017.7
20260831134608 82 0 0.0 0.0 0.00 0.00 0.00 85 1017.2
20260831133105 81 0 0.0 0.0 0.00 0.00 0.00 87 1017.4
20260831131607 79 0 0.0 0.0 0.00 0.00 0.00 89 1017.3
20260831130132 78 0 0.0 0.0 0.00 0.00 0.00 91 1017.0
20260831124603 77 0 0.0 0.0 0.00 0.00 0.00 93 1016.8
20260831123104 76 0 0.0 0.0 0.00 0.00 0.00 93 1016.6
20260831121559 76 0 0.0 0.0 0.00 0.00 0.00 93 1016.3
20260831120146 76 0 0.0 0.0 0.00 0.00 0.00 92 1016.0
20260831114605 76 0 0.0 0.0 0.00 0.00 0.00 92 1016.1
20260831113105 76 0 0.0 0.0 0.00 0.00 0.00 92 1016.1
20260831111603 76 0 0.0 0.0 0.00 0.00 0.00 92 1016.1
20260831110104 77 0 0.0 0.0 0.00 0.00 0.00 92 1016.1
20260831104607 77 0 0.0 0.0 0.00 0.00 0.00 91 1016.1
20260831103105 77 0 0.0 0.0 0.00 0.00 0.00 91 1016.0
20260831101618 77 0 0.0 0.0 0.00 0.00 0.00 91 1016.1
20260831100119 77 0 0.0 0.0 0.00 0.00 0.00 90 1016.1
20260831094619 77 0 0.0 0.0 0.00 0.00 0.00 90 1016.1
20260831093108 78 0 0.0 0.0 0.00 0.00 0.00 90 1015.9
20260831091605 78 0 0.0 0.0 0.00 0.00 0.00 89 1016.0
20260831090119 78 0 0.0 0.0 0.00 0.00 0.00 89 1016.2
20260831084605 78 0 0.0 0.0 0.00 0.00 0.00 89 1016.0
20260831083105 78 0 0.0 0.0 0.00 0.00 0.00 88 1016.1
20260831081604 79 0 0.0 0.0 0.00 0.00 0.00 88 1016.1
20260831074608 79 0 0.0 0.0 0.00 0.00 0.00 86 1016.1
20260831073114 80 0 0.0 0.0 0.00 0.00 0.00 86 1016.4